Regional Weather Roundup
Issued by NWS

Home | Current Version | Previous Version | Text Only | Print | Product List | Glossary Off
Versions: 1 2 3 4 5 6 7 8 9 10 11 12 13 14 15 16 17 18 19 20 21 22 23 24 25 26 27 28 29 30 31 32 33 34 35 36 37 38 39 40 41 42 43 44 45 46 47 48 49 50

000
ASUS44 KMEG 220210
RWRTN
TENNESSEE HOURLY STATE WEATHER ROUNDUP
NATIONAL WEATHER SERVICE MEMPHIS TN
900 PM CDT THU AUG 21 2014

TNZ002-004-019-021-049-052-054-088>092-220300-
WEST TENNESSEE

CITY           SKY/WX    TMP DP  RH WIND       PRES   REMARKS
MEMPHIS INTL   PTCLDY    86  74  67 SW9       30.06R HX  94
NWS MEMPHIS      N/A     86 N/A N/A MISG        N/A
JACKSON        CLEAR     81  74  79 S7        30.05R
DYERSBURG      CLEAR     82  66  57 CALM      30.03R
UNION CITY     CLEAR     79  73  83 S7        30.01R
PARIS          CLEAR     77  72  83 S7        30.05R
HUNTINGDON     CLEAR     79  74  84 S3        30.04R
LEXINGTON      CLEAR     81  73  78 S3        30.05R
SAVANNAH       CLEAR     79  79 100 CALM      30.08R
$$

TNZ008-025-027-028-033-062-065-066-220300-
NORTH MIDDLE TENNESSEE

CITY           SKY/WX    TMP DP  RH WIND       PRES   REMARKS
NASHVILLE      PTCLDY    85  72  65 SW5       30.06R HX  91
DICKSON        CLEAR     79  72  78 S6        30.07R
PORTLAND       PTCLDY    82  70  65 SW6       30.05
CLARKSVILLE    CLEAR     82  72  71 S5        30.03R
LEBANON        CLEAR     81  72  74 S5        30.04R
SMYRNA         CLEAR     83  72  69 SW5       30.07R
MURFREESBORO   CLEAR     85  70  60 S5        30.06R
COOKEVILLE     CLEAR     75  73  94 CALM      30.09S
GALLATIN       CLEAR     82  74  77 CALM      30.06R
CROSSVILLE     CLEAR     75  70  84 CALM      30.16R
$$

TNZ061-075-076-078-094-096-097-220300-
SOUTH MIDDLE TENNESSEE

CITY           SKY/WX    TMP DP  RH WIND       PRES   REMARKS
LEWISBURG      CLEAR     78  72  82 S3        30.08R
FAYETTEVILLE   CLEAR     81  70  69 CALM      30.11R
TULLAHOMA      CLEAR     79  72  78 CALM      30.12R
WINCHESTER     CLEAR     79  73  83 SE3       30.11R
MCMINNVILLE    CLEAR     75  75 100 CALM      30.11R
COLUMBIA       CLEAR     81  75  83 CALM      30.07R
SHELBYVILLE    CLEAR     79  75  89 CALM      30.10R
$$

TNZ017-018-042-046-047-220300-
NORTHEAST TENNESSEE

CITY           SKY/WX    TMP DP  RH WIND       PRES   REMARKS
TRI CITIES     CLOUDY    76  71  85 CALM      30.13R
ELIZABETHTON   CLEAR     70  70 100 CALM      30.14R
$$

TNZ012-013-036-069-073-074-220300-
CENTRAL EAST TENNESSEE

CITY           SKY/WX    TMP DP  RH WIND       PRES   REMARKS
KNOXVILLE      PTCLDY    80  71  74 S6        30.09R
OAK RIDGE      CLEAR     78  74  87 CALM      30.11R
GATLINBURG     CLEAR     75  72  88 CALM      30.10R
MORRISTOWN     CLEAR     79  73  83 CALM      30.12S
$$

TNZ083-085-099-220300-
SOUTHEAST TENNESSEE

CITY           SKY/WX    TMP DP  RH WIND       PRES   REMARKS
CHATTANOOGA    PTCLDY    83  71  67 CALM      30.10R
$$

SKY/WX REPORTED AS FAIR MEANS FEW OR NO CLOUDS BELOW
12 THOUSAND FEET.



USA.gov is the U.S. government's official web portal to all federal, state and local government web resources and services.